Location: Clarks Summit,Pa.
(41.5000°N, 75.6000°W)
Time: 10:44:34
(UTC-05:00)

Envisat - Pass Details

Date: 22 November 2018
Orbit: 764 x 766 km, 98.2° (Epoch: 13 December)

Event Time Altitude Azimuth Distance (km) Brightness Sun altitude
Rises 19:29:12 0° 185° (S) 3,218 6.3 -31.9°
Enters shadow 19:31:15 - 191° (S) 2,430 5.7 -32.3°
Exits shadow 19:35:25 37° 235° (SW) 1,186 4.2 -33.0°
Maximum altitude 19:36:22 40° 262° (W) 1,117 4.2 -33.2°
Drops below altitude 10° 19:41:09 10° 332° (NNW) 2,311 5.8 -34.1°
Sets 19:43:36 0° 340° (NNW) 3,241 6.5 -34.6°
